| time (UTC) | temp F | wind direction | speed knots | gust knots | rain 1hr in | rain 24hr in | rain mn in | humidity % | barometer mb |
| 20260906231537 | 56 | 286 | 6.1 | 11.3 | 0.00 | 0.00 | 0.00 | 86 | 1018.2 |
| 20260906231018 | 56 | 306 | 5.2 | 9.6 | 0.00 | 0.00 | 0.00 | 86 | 1018.2 |
| 20260906230518 | 56 | 298 | 6.1 | 9.6 | 0.00 | 0.00 | 0.00 | 86 | 1018.2 |
| 20260906230036 | 56 | 304 | 6.1 | 9.6 | 0.00 | 0.00 | 0.00 | 87 | 1018.3 |
| 20260906225519 | 56 | 311 | 5.2 | 9.6 | 0.00 | 0.00 | 0.00 | 86 | 1018.4 |
| 20260906225016 | 56 | 307 | 7.0 | 11.3 | 0.00 | 0.00 | 0.00 | 87 | 1018.4 |
| 20260906224532 | 56 | 294 | 7.8 | 11.3 | 0.00 | 0.00 | 0.00 | 87 | 1018.5 |
| 20260906224019 | 55 | 303 | 7.8 | 11.3 | 0.00 | 0.00 | 0.00 | 87 | 1018.4 |
| 20260906223521 | 56 | 328 | 7.0 | 11.3 | 0.00 | 0.00 | 0.00 | 87 | 1018.4 |
| 20260906223046 | 56 | 313 | 7.0 | 9.6 | 0.00 | 0.00 | 0.00 | 88 | 1018.4 |
| 20260906222516 | 56 | 294 | 7.0 | 12.2 | 0.00 | 0.00 | 0.00 | 88 | 1018.3 |
| 20260906222018 | 55 | 304 | 4.3 | 12.2 | 0.00 | 0.00 | 0.00 | 88 | 1018.3 |
| 20260906221535 | 55 | 315 | 8.7 | 12.2 | 0.00 | 0.00 | 0.00 | 89 | 1018.3 |
| 20260906221018 | 55 | 303 | 6.1 | 10.4 | 0.00 | 0.00 | 0.00 | 90 | 1018.3 |
| 20260906220518 | 54 | 311 | 7.0 | 10.4 | 0.00 | 0.00 | 0.00 | 90 | 1018.3 |
| 20260906220039 | 54 | 313 | 6.1 | 8.7 | 0.00 | 0.00 | 0.00 | 91 | 1018.3 |
| 20260906215519 | 54 | 298 | 5.2 | 8.7 | 0.00 | 0.00 | 0.00 | 92 | 1018.3 |
| 20260906215019 | 53 | 295 | 5.2 | 9.6 | 0.00 | 0.00 | 0.00 | 91 | 1018.3 |
| 20260906214547 | 54 | 277 | 5.2 | 9.6 | 0.00 | 0.00 | 0.00 | 92 | 1018.3 |
| 20260906214018 | 54 | 327 | 6.1 | 8.7 | 0.00 | 0.00 | 0.00 | 92 | 1018.2 |
| 20260906213522 | 53 | 319 | 5.2 | 7.8 | 0.00 | 0.00 | 0.00 | 92 | 1018.2 |
| 20260906213034 | 53 | 298 | 5.2 | 8.7 | 0.00 | 0.00 | 0.00 | 92 | 1018.3 |
| 20260906212518 | 53 | 326 | 4.3 | 8.7 | 0.00 | 0.00 | 0.00 | 91 | 1018.4 |
| 20260906212018 | 54 | 292 | 4.3 | 7.8 | 0.00 | 0.00 | 0.00 | 91 | 1018.4 |
| 20260906211542 | 54 | 299 | 1.7 | 7.0 | 0.00 | 0.00 | 0.00 | 92 | 1018.4 |
| 20260906211017 | 53 | 300 | 2.6 | 7.0 | 0.00 | 0.00 | 0.00 | 92 | 1018.4 |
| 20260906210521 | 53 | 295 | 2.6 | 7.0 | 0.00 | 0.00 | 0.00 | 93 | 1018.4 |
| 20260906210059 | 53 | 280 | 4.3 | 8.7 | 0.00 | 0.00 | 0.00 | 93 | 1018.5 |
| 20260906205517 | 53 | 282 | 5.2 | 8.7 | 0.00 | 0.00 | 0.00 | 93 | 1018.4 |
| 20260906205017 | 53 | 292 | 4.3 | 8.7 | 0.00 | 0.00 | 0.00 | 93 | 1018.4 |
| 20260906204022 | 53 | 315 | 2.6 | 7.0 | 0.00 | 0.00 | 0.00 | 93 | 1018.4 |
| 20260906203518 | 53 | 292 | 4.3 | 7.0 | 0.00 | 0.00 | 0.00 | 93 | 1018.5 |
| 20260906202518 | 53 | 300 | 3.5 | 7.0 | 0.00 | 0.00 | 0.00 | 93 | 1018.5 |
| 20260906202019 | 52 | 297 | 4.3 | 7.0 | 0.00 | 0.00 | 0.00 | 93 | 1018.5 |
| 20260906201546 | 52 | 316 | 4.3 | 7.0 | 0.00 | 0.00 | 0.00 | 92 | 1018.4 |
| 20260906201019 | 53 | 295 | 4.3 | 7.8 | 0.00 | 0.00 | 0.00 | 92 | 1018.5 |
| 20260906200519 | 52 | 290 | 3.5 | 7.8 | 0.00 | 0.00 | 0.00 | 92 | 1018.5 |
| 20260906195520 | 53 | 313 | 3.5 | 7.8 | 0.00 | 0.00 | 0.00 | 92 | 1018.5 |
| 20260906195019 | 53 | 292 | 5.2 | 7.8 | 0.00 | 0.00 | 0.00 | 91 | 1018.6 |
| 20260906194537 | 53 | 297 | 6.1 | 7.8 | 0.00 | 0.00 | 0.00 | 91 | 1018.5 |
| 20260906194018 | 53 | 279 | 2.6 | 7.0 | 0.00 | 0.00 | 0.00 | 91 | 1018.5 |
| 20260906193516 | 53 | 319 | 4.3 | 7.0 | 0.00 | 0.00 | 0.00 | 91 | 1018.6 |
| 20260906192519 | 53 | 314 | 4.3 | 7.8 | 0.00 | 0.00 | 0.00 | 90 | 1018.7 |
| 20260906192017 | 53 | 294 | 3.5 | 8.7 | 0.00 | 0.00 | 0.00 | 90 | 1018.7 |
| 20260906191017 | 54 | 302 | 3.5 | 7.0 | 0.00 | 0.00 | 0.00 | 90 | 1018.7 |
| 20260906190520 | 53 | 309 | 1.7 | 5.2 | 0.00 | 0.00 | 0.00 | 90 | 1018.8 |
| 20260906185516 | 53 | 296 | 3.5 | 7.0 | 0.00 | 0.00 | 0.00 | 91 | 1018.8 |
| 20260906185019 | 53 | 352 | 4.3 | 7.8 | 0.00 | 0.00 | 0.00 | 90 | 1018.7 |
| 20260906184536 | 53 | 338 | 5.2 | 7.8 | 0.00 | 0.00 | 0.00 | 91 | 1018.7 |
| 20260906184019 | 53 | 322 | 3.5 | 7.8 | 0.00 | 0.00 | 0.00 | 90 | 1018.6 |
| 20260906183516 | 53 | 292 | 2.6 | 7.8 | 0.00 | 0.00 | 0.00 | 91 | 1018.8 |
| 20260906183041 | 53 | 314 | 4.3 | 7.0 | 0.00 | 0.00 | 0.00 | 91 | 1018.8 |
| 20260906182517 | 53 | 287 | 3.5 | 7.8 | 0.00 | 0.00 | 0.00 | 91 | 1018.8 |
| 20260906182018 | 53 | 277 | 3.5 | 7.8 | 0.00 | 0.00 | 0.00 | 91 | 1018.8 |
| 20260906181539 | 53 | 315 | 3.5 | 7.0 | 0.00 | 0.00 | 0.00 | 91 | 1018.8 |
| 20260906181018 | 53 | 292 | 2.6 | 6.1 | 0.00 | 0.00 | 0.00 | 92 | 1018.7 |
| 20260906180520 | 53 | 107 | 0.0 | 2.6 | 0.00 | 0.00 | 0.00 | 92 | 1018.8 |
| 20260906175521 | 52 | 107 | 0.0 | 6.1 | 0.00 | 0.00 | 0.00 | 93 | 1019.0 |
| 20260906175017 | 52 | 107 | 3.5 | 5.2 | 0.00 | 0.00 | 0.00 | 93 | 1019.0 |
| 20260906174017 | 52 | 107 | 0.0 | 6.1 | 0.00 | 0.00 | 0.00 | 94 | 1019.2 |
| 20260906173516 | 52 | 107 | 1.7 | 6.1 | 0.00 | 0.00 | 0.00 | 93 | 1019.2 |
| 20260906173036 | 51 | 122 | 1.7 | 5.2 | 0.00 | 0.00 | 0.00 | 93 | 1019.2 |
| 20260906172518 | 51 | 277 | 0.0 | 3.5 | 0.00 | 0.00 | 0.00 | 93 | 1019.1 |
| 20260906172016 | 51 | 277 | 1.7 | 4.3 | 0.00 | 0.00 | 0.00 | 93 | 1019.2 |
| 20260906171020 | 51 | 294 | 0.9 | 3.5 | 0.00 | 0.00 | 0.00 | 94 | 1019.2 |
| 20260906170519 | 51 | 294 | 1.7 | 6.1 | 0.00 | 0.00 | 0.00 | 94 | 1019.1 |
| 20260906170036 | 51 | 306 | 2.6 | 7.0 | 0.00 | 0.00 | 0.00 | 93 | 1019.1 |
| 20260906165520 | 51 | 298 | 3.5 | 7.0 | 0.00 | 0.00 | 0.00 | 94 | 1019.1 |
| 20260906165019 | 51 | 304 | 1.7 | 4.3 | 0.00 | 0.00 | 0.00 | 94 | 1019.0 |
| 20260906164018 | 51 | 298 | 3.5 | 4.3 | 0.00 | 0.00 | 0.00 | 94 | 1019.1 |
| 20260906163522 | 51 | 304 | 0.0 | 4.3 | 0.00 | 0.00 | 0.00 | 94 | 1019.1 |
| 20260906162017 | 51 | 351 | 0.0 | 3.5 | 0.00 | 0.00 | 0.00 | 94 | 1019.2 |
| 20260906161535 | 51 | 317 | 1.7 | 3.5 | 0.00 | 0.00 | 0.00 | 94 | 1019.1 |
| 20260906161019 | 51 | 317 | 1.7 | 4.3 | 0.00 | 0.00 | 0.00 | 94 | 1019.1 |
| 20260906160519 | 51 | 317 | 2.6 | 4.3 | 0.00 | 0.00 | 0.00 | 94 | 1019.0 |
| 20260906160038 | 51 | 269 | 0.9 | 3.5 | 0.00 | 0.00 | 0.00 | 94 | 1019.0 |
| 20260906155516 | 51 | 269 | 0.9 | 2.6 | 0.00 | 0.00 | 0.00 | 94 | 1019.0 |
| 20260906155018 | 51 | 269 | 0.9 | 5.2 | 0.00 | 0.00 | 0.00 | 94 | 1018.9 |
| 20260906153518 | 50 | 318 | 0.0 | 4.3 | 0.00 | 0.00 | 0.00 | 94 | 1018.8 |
| 20260906152518 | 50 | 296 | 1.7 | 6.1 | 0.00 | 0.00 | 0.00 | 93 | 1018.7 |
| 20260906152019 | 50 | 296 | 2.6 | 6.1 | 0.00 | 0.00 | 0.00 | 94 | 1018.7 |
| 20260906151017 | 50 | 294 | 2.6 | 3.5 | 0.00 | 0.00 | 0.00 | 94 | 1018.6 |
| 20260906150517 | 50 | 294 | 0.9 | 2.6 | 0.00 | 0.00 | 0.00 | 94 | 1018.6 |
| 20260906150043 | 50 | 294 | 0.0 | 1.7 | 0.00 | 0.00 | 0.00 | 93 | 1018.6 |
| 20260906145518 | 50 | 294 | 0.0 | 3.5 | 0.00 | 0.00 | 0.00 | 93 | 1018.6 |
| 20260906145018 | 50 | 294 | 1.7 | 3.5 | 0.00 | 0.00 | 0.00 | 93 | 1018.7 |
| 20260906144541 | 50 | 294 | 0.0 | 4.3 | 0.00 | 0.00 | 0.00 | 93 | 1018.8 |
| 20260906144016 | 50 | 294 | 2.6 | 4.3 | 0.00 | 0.00 | 0.00 | 93 | 1018.7 |
| 20260906142517 | 50 | 303 | 2.6 | 4.3 | 0.00 | 0.00 | 0.00 | 93 | 1018.6 |
| 20260906142023 | 51 | 303 | 2.6 | 5.2 | 0.00 | 0.00 | 0.00 | 93 | 1018.5 |
| 20260906141018 | 50 | 115 | 0.9 | 1.7 | 0.00 | 0.00 | 0.00 | 92 | 1018.4 |
| 20260906140519 | 50 | 115 | 0.9 | 6.1 | 0.00 | 0.00 | 0.00 | 93 | 1018.4 |
| 20260906140038 | 50 | 115 | 2.6 | 7.8 | 0.00 | 0.00 | 0.00 | 93 | 1018.3 |
| 20260906135517 | 50 | 115 | 5.2 | 10.4 | 0.00 | 0.00 | 0.00 | 92 | 1018.4 |
| 20260906135016 | 50 | 113 | 7.8 | 10.4 | 0.00 | 0.00 | 0.00 | 92 | 1018.3 |
| 20260906134017 | 50 | 105 | 4.3 | 6.1 | 0.00 | 0.00 | 0.00 | 92 | 1018.4 |
| 20260906133517 | 50 | 90 | 3.5 | 5.2 | 0.00 | 0.00 | 0.00 | 91 | 1018.5 |
| 20260906132520 | 51 | 113 | 1.7 | 7.0 | 0.00 | 0.00 | 0.00 | 91 | 1018.4 |
| 20260906132017 | 51 | 115 | 4.3 | 7.0 | 0.00 | 0.00 | 0.00 | 91 | 1018.4 |
| 20260906131019 | 51 | 99 | 3.5 | 7.0 | 0.00 | 0.00 | 0.00 | 91 | 1018.4 |
| 20260906130519 | 51 | 109 | 3.5 | 6.1 | 0.00 | 0.00 | 0.00 | 92 | 1018.4 |
| 20260906125520 | 51 | 121 | 0.9 | 2.6 | 0.00 | 0.00 | 0.00 | 92 | 1018.5 |
| 20260906125025 | 51 | 121 | 0.0 | 6.1 | 0.00 | 0.00 | 0.00 | 92 | 1018.5 |
| 20260906124018 | 51 | 288 | 0.0 | 3.5 | 0.00 | 0.00 | 0.00 | 92 | 1018.5 |
| 20260906123518 | 51 | 288 | 2.6 | 3.5 | 0.00 | 0.00 | 0.00 | 92 | 1018.5 |
| 20260906122020 | 52 | 317 | 0.9 | 3.5 | 0.00 | 0.00 | 0.00 | 91 | 1018.3 |
| 20260906120517 | 53 | 134 | 7.0 | 8.7 | 0.00 | 0.00 | 0.00 | 90 | 1018.1 |
| 20260906120039 | 52 | 124 | 6.1 | 8.7 | 0.00 | 0.00 | 0.00 | 92 | 1017.9 |
| 20260906115521 | 52 | 107 | 3.5 | 5.2 | 0.00 | 0.00 | 0.00 | 92 | 1018.1 |
| 20260906115017 | 52 | 86 | 1.7 | 3.5 | 0.00 | 0.00 | 0.00 | 92 | 1018.0 |
| 20260906113517 | 52 | 278 | 0.9 | 3.5 | 0.00 | 0.00 | 0.00 | 92 | 1018.1 |
| 20260906112020 | 53 | 278 | 2.6 | 6.1 | 0.00 | 0.00 | 0.00 | 90 | 1018.0 |
| 20260906111538 | 53 | 288 | 3.5 | 6.1 | 0.00 | 0.00 | 0.00 | 88 | 1018.1 |
| 20260906111018 | 53 | 115 | 0.0 | 5.2 | 0.00 | 0.00 | 0.00 | 86 | 1018.2 |
| 20260906110519 | 53 | 115 | 3.5 | 5.2 | 0.00 | 0.00 | 0.00 | 86 | 1018.0 |
| 20260906110035 | 54 | 131 | 0.0 | 6.1 | 0.00 | 0.00 | 0.00 | 86 | 1018.1 |
| 20260906105518 | 54 | 131 | 2.6 | 7.0 | 0.00 | 0.00 | 0.00 | 86 | 1018.1 |
| 20260906105018 | 54 | 95 | 5.2 | 7.0 | 0.00 | 0.00 | 0.00 | 86 | 1018.0 |
| 20260906104535 | 54 | 101 | 1.7 | 3.5 | 0.00 | 0.00 | 0.00 | 86 | 1018.0 |
| 20260906104016 | 54 | 101 | 1.7 | 3.5 | 0.00 | 0.00 | 0.00 | 86 | 1018.0 |
| 20260906103055 | 54 | 271 | 3.5 | 6.1 | 0.00 | 0.00 | 0.00 | 87 | 1018.1 |
| 20260906102519 | 54 | 114 | 0.9 | 6.1 | 0.00 | 0.00 | 0.00 | 87 | 1018.0 |
| 20260906101538 | 54 | 92 | 3.5 | 7.0 | 0.00 | 0.00 | 0.00 | 86 | 1018.0 |
| 20260906101019 | 54 | 105 | 5.2 | 7.0 | 0.00 | 0.00 | 0.00 | 86 | 1018.0 |
| 20260906100518 | 54 | 120 | 5.2 | 7.8 | 0.00 | 0.00 | 0.00 | 88 | 1018.1 |
| 20260906100036 | 53 | 292 | 1.7 | 8.7 | 0.00 | 0.00 | 0.00 | 89 | 1018.1 |
| 20260906095516 | 53 | 288 | 7.0 | 8.7 | 0.00 | 0.00 | 0.00 | 87 | 1018.1 |
| 20260906095016 | 55 | 294 | 5.2 | 7.0 | 0.00 | 0.00 | 0.00 | 84 | 1018.1 |
| 20260906094535 | 55 | 303 | 1.7 | 3.5 | 0.00 | 0.00 | 0.00 | 79 | 1018.0 |
| 20260906094017 | 55 | 303 | 1.7 | 6.1 | 0.00 | 0.00 | 0.00 | 81 | 1018.0 |
| 20260906093041 | 55 | 288 | 5.2 | 7.0 | 0.00 | 0.00 | 0.00 | 81 | 1017.8 |
| 20260906092519 | 56 | 113 | 0.9 | 3.5 | 0.00 | 0.00 | 0.00 | 81 | 1017.7 |
| 20260906092024 | 56 | 113 | 2.6 | 5.2 | 0.00 | 0.00 | 0.00 | 81 | 1017.6 |
| 20260906091535 | 56 | 113 | 3.5 | 5.2 | 0.00 | 0.00 | 0.00 | 82 | 1017.7 |
| 20260906091016 | 56 | 113 | 0.9 | 3.5 | 0.00 | 0.00 | 0.00 | 80 | 1017.7 |
| 20260906090516 | 56 | 113 | 0.9 | 2.6 | 0.00 | 0.00 | 0.00 | 82 | 1017.7 |
| 20260906085019 | 56 | 113 | 1.7 | 2.6 | 0.00 | 0.00 | 0.00 | 82 | 1017.7 |
| 20260906084539 | 57 | 113 | 1.7 | 3.5 | 0.00 | 0.00 | 0.00 | 82 | 1017.8 |
| 20260906084018 | 57 | 113 | 1.7 | 3.5 | 0.00 | 0.00 | 0.00 | 82 | 1017.8 |
| 20260906083519 | 57 | 113 | 1.7 | 3.5 | 0.00 | 0.00 | 0.00 | 81 | 1017.7 |
| 20260906083042 | 57 | 113 | 2.6 | 3.5 | 0.00 | 0.00 | 0.00 | 81 | 1017.7 |
| 20260906082518 | 57 | 113 | 2.6 | 3.5 | 0.00 | 0.00 | 0.00 | 81 | 1017.8 |
| 20260906082019 | 57 | 113 | 2.6 | 3.5 | 0.00 | 0.00 | 0.00 | 82 | 1017.8 |
| 20260906081537 | 57 | 113 | 2.6 | 3.5 | 0.00 | 0.00 | 0.00 | 81 | 1017.7 |
| 20260906081018 | 57 | 113 | 2.6 | 5.2 | 0.00 | 0.00 | 0.00 | 80 | 1017.7 |
| 20260906075520 | 58 | 113 | 2.6 | 5.2 | 0.00 | 0.00 | 0.00 | 79 | 1017.7 |
| 20260906075018 | 57 | 113 | 2.6 | 5.2 | 0.00 | 0.00 | 0.00 | 80 | 1017.7 |
| 20260906074539 | 57 | 146 | 3.5 | 4.3 | 0.00 | 0.00 | 0.00 | 81 | 1017.7 |
| 20260906074018 | 57 | 146 | 2.6 | 4.3 | 0.00 | 0.00 | 0.00 | 80 | 1017.7 |
| 20260906073518 | 57 | 146 | 2.6 | 4.3 | 0.00 | 0.00 | 0.00 | 78 | 1017.6 |
| 20260906073054 | 57 | 146 | 2.6 | 3.5 | 0.00 | 0.00 | 0.00 | 79 | 1017.7 |
| 20260906072517 | 56 | 146 | 2.6 | 4.3 | 0.00 | 0.00 | 0.00 | 79 | 1017.6 |
| 20260906072020 | 56 | 146 | 2.6 | 4.3 | 0.00 | 0.00 | 0.00 | 80 | 1017.6 |
| 20260906071536 | 56 | 146 | 2.6 | 3.5 | 0.00 | 0.00 | 0.00 | 81 | 1017.7 |
| 20260906071018 | 56 | 146 | 2.6 | 3.5 | 0.00 | 0.00 | 0.00 | 81 | 1017.7 |
| 20260906070518 | 57 | 146 | 2.6 | 3.5 | 0.00 | 0.00 | 0.00 | 81 | 1017.7 |
| 20260906070041 | 57 | 146 | 2.6 | 3.5 | 0.00 | 0.00 | 0.00 | 82 | 1017.7 |
| 20260906065519 | 57 | 146 | 1.7 | 3.5 | 0.00 | 0.00 | 0.00 | 82 | 1017.7 |
| 20260906065018 | 57 | 146 | 1.7 | 3.5 | 0.00 | 0.00 | 0.00 | 81 | 1017.7 |
| 20260906064539 | 57 | 146 | 1.7 | 3.5 | 0.00 | 0.00 | 0.00 | 80 | 1017.6 |
| 20260906064018 | 57 | 146 | 2.6 | 3.5 | 0.00 | 0.00 | 0.00 | 80 | 1017.6 |
| 20260906063517 | 57 | 146 | 2.6 | 3.5 | 0.00 | 0.00 | 0.00 | 80 | 1017.5 |
| 20260906063047 | 57 | 146 | 2.6 | 4.3 | 0.00 | 0.00 | 0.00 | 80 | 1017.6 |
| 20260906061543 | 58 | 146 | 2.6 | 3.5 | 0.00 | 0.00 | 0.00 | 79 | 1017.6 |
| 20260906061019 | 58 | 146 | 2.6 | 3.5 | 0.00 | 0.00 | 0.00 | 79 | 1017.7 |
| 20260906060519 | 58 | 146 | 2.6 | 3.5 | 0.00 | 0.00 | 0.00 | 78 | 1017.5 |
| 20260906060042 | 58 | 146 | 2.6 | 3.5 | 0.00 | 0.00 | 0.00 | 77 | 1017.4 |
| 20260906055521 | 58 | 146 | 2.6 | 3.5 | 0.00 | 0.00 | 0.00 | 77 | 1017.4 |
| 20260906055017 | 58 | 146 | 2.6 | 3.5 | 0.00 | 0.00 | 0.00 | 77 | 1017.4 |
| 20260906054546 | 58 | 146 | 2.6 | 4.3 | 0.00 | 0.00 | 0.00 | 74 | 1017.4 |
| 20260906053042 | 58 | 146 | 3.5 | 4.3 | 0.00 | 0.00 | 0.00 | 78 | 1017.5 |
| 20260906051556 | 58 | 146 | 2.6 | 3.5 | 0.00 | 0.00 | 0.00 | 76 | 1017.4 |
| 20260906051020 | 58 | 146 | 2.6 | 3.5 | 0.00 | 0.00 | 0.00 | 77 | 1017.4 |
| 20260906050517 | 59 | 146 | 2.6 | 3.5 | 0.00 | 0.00 | 0.00 | 75 | 1017.4 |
| 20260906050053 | 59 | 146 | 2.6 | 3.5 | 0.00 | 0.00 | 0.00 | 74 | 1017.4 |
| 20260906045520 | 59 | 146 | 2.6 | 3.5 | 0.00 | 0.00 | 0.00 | 76 | 1017.6 |
| 20260906045017 | 59 | 146 | 2.6 | 3.5 | 0.00 | 0.00 | 0.00 | 74 | 1017.5 |
| 20260906044550 | 59 | 146 | 2.6 | 3.5 | 0.00 | 0.00 | 0.00 | 73 | 1017.5 |
| 20260906043517 | 60 | 146 | 3.5 | 4.3 | 0.00 | 0.00 | 0.00 | 72 | 1017.5 |
| 20260906043043 | 60 | 120 | 4.3 | 5.2 | 0.00 | 0.00 | 0.00 | 74 | 1017.5 |
| 20260906042516 | 60 | 166 | 2.6 | 4.3 | 0.00 | 0.00 | 0.00 | 72 | 1017.6 |
| 20260906042016 | 60 | 166 | 3.5 | 4.3 | 0.00 | 0.00 | 0.00 | 70 | 1017.6 |
| 20260906041535 | 60 | 166 | 3.5 | 4.3 | 0.00 | 0.00 | 0.00 | 71 | 1017.6 |
| 20260906041020 | 60 | 117 | 2.6 | 5.2 | 0.00 | 0.00 | 0.00 | 75 | 1017.7 |
| 20260906040517 | 60 | 117 | 2.6 | 5.2 | 0.00 | 0.00 | 0.00 | 73 | 1017.7 |
| 20260906040038 | 60 | 117 | 2.6 | 3.5 | 0.00 | 0.00 | 0.00 | 74 | 1017.7 |
| 20260906035516 | 60 | 117 | 2.6 | 3.5 | 0.00 | 0.00 | 0.00 | 75 | 1017.8 |
| 20260906035018 | 61 | 117 | 2.6 | 3.5 | 0.00 | 0.00 | 0.00 | 75 | 1017.9 |
| 20260906034539 | 61 | 117 | 1.7 | 2.6 | 0.00 | 0.00 | 0.00 | 72 | 1017.8 |
| 20260906034021 | 61 | 117 | 1.7 | 2.6 | 0.00 | 0.00 | 0.00 | 75 | 1017.8 |
| 20260906033518 | 62 | 117 | 1.7 | 2.6 | 0.00 | 0.00 | 0.00 | 75 | 1017.7 |
| 20260906033035 | 62 | 117 | 0.9 | 1.7 | 0.00 | 0.00 | 0.00 | 73 | 1017.7 |
| 20260906032515 | 62 | 117 | 0.9 | 2.6 | 0.00 | 0.00 | 0.00 | 75 | 1017.6 |
| 20260906032016 | 62 | 117 | 0.9 | 2.6 | 0.00 | 0.00 | 0.00 | 72 | 1017.6 |
| 20260906031542 | 62 | 117 | 0.9 | 2.6 | 0.00 | 0.00 | 0.00 | 74 | 1017.7 |
| 20260906031016 | 62 | 117 | 0.9 | 2.6 | 0.00 | 0.00 | 0.00 | 73 | 1017.7 |
| 20260906030517 | 63 | 117 | 1.7 | 2.6 | 0.00 | 0.00 | 0.00 | 71 | 1017.7 |
| 20260906025520 | 63 | 117 | 0.9 | 2.6 | 0.00 | 0.00 | 0.00 | 72 | 1017.6 |
| 20260906025016 | 63 | 117 | 0.9 | 1.7 | 0.00 | 0.00 | 0.00 | 70 | 1017.6 |
| 20260906024534 | 64 | 117 | 0.9 | 2.6 | 0.00 | 0.00 | 0.00 | 68 | 1017.5 |
| 20260906024017 | 64 | 117 | 1.7 | 2.6 | 0.00 | 0.00 | 0.00 | 69 | 1017.5 |
| 20260906023518 | 65 | 117 | 0.9 | 2.6 | 0.00 | 0.00 | 0.00 | 69 | 1017.5 |
| 20260906023034 | 66 | 117 | 1.7 | 2.6 | 0.00 | 0.00 | 0.00 | 65 | 1017.5 |
| 20260906022519 | 67 | 117 | 0.0 | 1.7 | 0.00 | 0.00 | 0.00 | 64 | 1017.6 |
| 20260906022017 | 66 | 117 | 0.0 | 2.6 | 0.00 | 0.00 | 0.00 | 61 | 1017.6 |
| 20260906021534 | 67 | 117 | 1.7 | 2.6 | 0.00 | 0.00 | 0.00 | 63 | 1017.5 |
| 20260906021017 | 68 | 117 | 1.7 | 2.6 | 0.00 | 0.00 | 0.00 | 63 | 1017.5 |
| 20260906020517 | 70 | 117 | 0.0 | 2.6 | 0.00 | 0.00 | 0.00 | 60 | 1017.7 |
| 20260906015516 | 70 | 279 | 1.7 | 3.5 | 0.00 | 0.00 | 0.00 | 55 | 1017.8 |
| 20260906015018 | 69 | 279 | 1.7 | 3.5 | 0.00 | 0.00 | 0.00 | 58 | 1017.7 |
| 20260906014536 | 70 | 279 | 2.6 | 4.3 | 0.00 | 0.00 | 0.00 | 57 | 1017.6 |
| 20260906014016 | 69 | 279 | 1.7 | 4.3 | 0.00 | 0.00 | 0.00 | 57 | 1017.6 |
| 20260906013518 | 70 | 279 | 2.6 | 6.1 | 0.00 | 0.00 | 0.00 | 57 | 1017.7 |
| 20260906012518 | 70 | 289 | 2.6 | 7.0 | 0.00 | 0.00 | 0.00 | 56 | 1017.9 |
| 20260906012016 | 70 | 289 | 3.5 | 7.0 | 0.00 | 0.00 | 0.00 | 57 | 1017.9 |
| 20260906011545 | 70 | 292 | 2.6 | 4.3 | 0.00 | 0.00 | 0.00 | 54 | 1017.8 |
| 20260906011018 | 70 | 298 | 1.7 | 4.3 | 0.00 | 0.00 | 0.00 | 54 | 1017.8 |
| 20260906010517 | 70 | 290 | 2.6 | 4.3 | 0.00 | 0.00 | 0.00 | 53 | 1017.9 |
| 20260906010036 | 70 | 292 | 3.5 | 4.3 | 0.00 | 0.00 | 0.00 | 53 | 1017.9 |
| 20260906005518 | 70 | 277 | 2.6 | 5.2 | 0.00 | 0.00 | 0.00 | 53 | 1017.8 |
| 20260906005018 | 70 | 275 | 0.9 | 5.2 | 0.00 | 0.00 | 0.00 | 53 | 1017.9 |
| 20260906004537 | 70 | 275 | 1.7 | 5.2 | 0.00 | 0.00 | 0.00 | 53 | 1017.9 |
| 20260906004017 | 70 | 275 | 1.7 | 5.2 | 0.00 | 0.00 | 0.00 | 54 | 1017.8 |
| 20260906003517 | 70 | 275 | 2.6 | 6.1 | 0.00 | 0.00 | 0.00 | 55 | 1017.9 |
| 20260906002518 | 70 | 293 | 3.5 | 6.1 | 0.00 | 0.00 | 0.00 | 55 | 1017.9 |
| 20260906002018 | 70 | 292 | 2.6 | 6.1 | 0.00 | 0.00 | 0.00 | 54 | 1017.8 |
| 20260906001019 | 70 | 295 | 3.5 | 7.0 | 0.00 | 0.00 | 0.00 | 49 | 1017.8 |
| 20260906000517 | 71 | 294 | 4.3 | 7.0 | 0.00 | 0.00 | 0.00 | 47 | 1017.8 |
| 20260906000034 | 71 | 287 | 4.3 | 7.0 | 0.00 | 0.00 | 0.00 | 49 | 1017.9 |
| 20260905235518 | 71 | 282 | 3.5 | 7.0 | 0.00 | 0.00 | 0.00 | 50 | 1017.9 |
| 20260905235019 | 71 | 293 | 3.5 | 6.1 | 0.00 | 0.00 | 0.00 | 48 | 1017.9 |
| 20260905234532 | 71 | 293 | 2.6 | 6.1 | 0.00 | 0.00 | 0.00 | 48 | 1017.9 |
| 20260905234017 | 71 | 297 | 3.5 | 6.1 | 0.00 | 0.00 | 0.00 | 49 | 1018.1 |
| 20260905233519 | 71 | 290 | 2.6 | 5.2 | 0.00 | 0.00 | 0.00 | 48 | 1018.0 |
| 20260905233041 | 70 | 266 | 1.7 | 5.2 | 0.00 | 0.00 | 0.00 | 48 | 1018.2 |
| 20260905232517 | 70 | 290 | 1.7 | 5.2 | 0.00 | 0.00 | 0.00 | 49 | 1018.3 |
| 20260905232016 | 70 | 298 | 3.5 | 5.2 | 0.00 | 0.00 | 0.00 | 53 | 1018.2 |